NNS 30240-36

operational
NORAD ID: 15935 Int'l Des: 1985-066 Owner: NAVAIR Country: US
LEORETROGRADE

About NNS 30240-36

Description loading...

Live Position

Loading 3D Globe...

Upcoming Passes

Altitude History

Altitude vs Time

uPlot chart will show altitude changes over time

Two-Line Element Set

1 15935U 85066A 26062.63465115 .00000102 00000-0 17007-3 0 9996
2 15935 90.1554 101.1402 0166748 214.9109 266.4325 13.36093942975331
Epoch: Mar 3, 2026 • Age: 36 hours

Current Status

Altitude 1068.2 km
Velocity 7.36 km/s
Sub-Earth Point -81.12°S, 57.48°W
Launch Date Aug 3, 1985
Age 40.5 years
Type other

Technical Details

Classification Payload
Mass 66.00 kg
Dry Mass 66.00 kg
Total Mass 66.00 kg
Length 0.30 m
Diameter 0.50 m
Span 30.00 m
Shape Oct Cyl + 4 Pan + Ant
Manufacturer RCA
Bus Type Transit 5
Phase Status In Orbit
Owner/State NAVAIR/US

Large Constellations

Loading constellations...